Home > Weather > Rockhampton > Past weeks

Flag for Australia Weather for the Past 2 Weeks in Rockhampton, Queensland, Australia

Now
72 °F

Partly sunny.


Feels Like: 71 °F
Forecast: 68 / 81 °F
Wind: 8 mph from Southeast

Location: Rockhampton Airport

Current Time: May 5, 2016 at 8:22:22 AM

Latest Report: May 5, 2016 at 7:30 AM


Visibility: N/A

Pressure: 30.07 "Hg

Humidity: 83%

Dew Point: 66 °F

Location of RockhamptonLocation

Historic Weather in Rockhampton — Graph

°F

Rockhampton Temperature Yesterday

Maximum temperature yesterday: 81 °F (at 9:30 AM)
Minimum temperature yesterday: 72 °F (at 11:00 PM)
Average temperature yesterday: 77 °F

High & Low Weather Summary for the Past Weeks

 TemperatureHumidityPressure
High90 °F (Apr 23, 1:00 PM)100% (Apr 23, 2:30 AM)30.15 "Hg (Apr 23, 2:30 AM)
Low63 °F (Apr 25, 6:00 AM)33% (Apr 23, 2:00 PM)29.83 "Hg (May 3, 3:00 PM)
Average76 °F71%30.03 "Hg
* Reported Apr 20 4:00 AM — May 5 4:00 AM, Rockhampton, Weather by CustomWeather, © 2016

Note: Actual official high and low records may vary slightly from our data, if they occured in-between our weather recording intervals... More about our weather records

Advertising

Rockhampton Weather History for the Previous 24 Hours

Scroll right to see more
 ConditionsComfort  
Time TempWeatherWind HumidityBarometerVisibility
4:00 AM
Thu, May 5
70 °FClear.6 mph94%30.01 "HgN/A
3:30 AM70 °FClear.6 mph94%30.01 "HgN/A
3:00 AM70 °FClear.No wind94%30.01 "HgN/A
2:00 AM70 °FClear.1 mph94%30.01 "HgN/A
1:30 AM70 °FClear.3 mph88%30.01 "HgN/A
12:30 AM70 °FClear.5 mph88%30.01 "HgN/A
12:00 AM70 °FClear.5 mph88%30.01 "HgN/A
11:30 PM
Wed, May 4
72 °FClear.2 mph83%30.04 "HgN/A
11:00 PM72 °FClear.5 mph83%30.04 "HgN/A
10:00 PM73 °FClear.2 mph83%30.04 "HgN/A
9:00 PM73 °FClear.6 mph78%30.04 "HgN/A
8:00 PM75 °FClear.6 mph78%30.01 "HgN/A
7:00 PM75 °FClear.No wind78%30.01 "HgN/A
6:30 PM77 °FClear.3 mph74%29.98 "HgN/A
6:00 PM77 °FClear.3 mph69%29.95 "HgN/A
5:30 PM79 °FPassing clouds.3 mph70%29.95 "HgN/A
5:00 PM79 °FPassing clouds.5 mph70%29.92 "HgN/A
4:00 PM81 °FPartly sunny.5 mph62%29.92 "HgN/A
3:30 PM81 °FPartly sunny.6 mph62%29.92 "HgN/A
3:00 PM81 °FDrizzle. Broken clouds.5 mph62%29.92 "HgN/A
2:30 PM81 °FPartly sunny.3 mph62%29.92 "HgN/A
2:00 PM81 °FPartly sunny.6 mph58%29.92 "HgN/A
1:00 PM79 °FDrizzle. Broken clouds.8 mph65%29.95 "HgN/A
12:30 PM79 °FScattered showers. Partly sunny.5 mph70%29.95 "HgN/A
12:00 PM79 °FLight rain. Broken clouds.8 mph74%29.98 "HgN/A
11:30 AM79 °FDrizzle. Broken clouds.9 mph70%29.98 "HgN/A
11:00 AM77 °FDrizzle. Broken clouds.13 mph74%30.01 "HgN/A
10:30 AM81 °FDrizzle. Broken clouds.13 mph66%30.01 "HgN/A
10:00 AM81 °FBroken clouds.6 mph66%30.01 "HgN/A
9:30 AM81 °FBroken clouds.6 mph70%30.01 "HgN/A
9:00 AM79 °FBroken clouds.5 mph74%30.01 "HgN/A
8:30 AM77 °FSunny.6 mph83%30.01 "Hg10 mi
8:00 AM75 °FSunny.5 mph89%29.98 "Hg10 mi
Weather by CustomWeather, © 2016

See weather overviewHow to use our weather pages